Wind_Speed
9 8 7 7 6 6 4 4 5 6 6 6 5 4 5 5 5 4 4 3 3 2 2 1 1 1 2 2 2 3 3 4 5 5 5 5 6 6 6 5 4 4 5 5 5 6 6 5 5
10 9 8 7 7 6 5 4 4 6 7 5 5 5 4 5 5 5 4 3 3 2 2 1 1 1 1 2 2 3 4 5 5 5 5 5 5 6 6 5 5 5 5 5 5 5 5 5 5
11 10 9 8 8 6 5 4 3 5 6 6 6 6 5 5 5 5 4 3 3 2 2 1 1 1 2 2 3 3 4 5 6 6 5 5 5 5 5 5 6 5 5 5 5 5 5 5 5
11 11 10 9 9 7 6 4 5 5 6 6 6 6 6 6 5 5 5 4 3 2 2 1 1 1 2 2 3 4 5 5 6 5 5 5 5 5 5 6 6 5 5 5 5 5 5 5 5
13 11 11 10 9 9 8 6 4 5 6 6 7 6 7 6 6 5 5 5 4 3 2 1 0 1 2 2 3 4 5 5 5 5 5 5 5 5 6 6 6 6 5 5 5 5 5 5 5
14 13 12 11 11 10 9 7 5 5 6 7 7 7 7 7 7 6 5 5 4 3 2 1 1 1 2 2 3 4 5 5 5 5 5 5 5 6 6 6 6 6 6 6 6 6 6 6 6
14 14 13 12 12 11 8 8 7 6 7 7 7 7 6 6 6 5 5 4 4 3 2 2 1 1 1 3 3 4 5 5 5 5 5 5 5 6 6 6 6 6 6 6 6 6 6 6 6
14 14 13 13 12 11 9 8 9 8 7 8 8 8 7 7 6 6 5 4 3 3 2 1 1 1 2 3 4 4 4 5 5 5 6 6 6 6 6 6 7 7 7 7 7 7 7 7 7
15 14 13 13 12 11 10 9 8 8 8 8 8 8 7 7 6 6 5 4 3 3 2 2 1 2 2 3 4 4 4 5 5 5 6 6 7 7 7 7 7 8 8 7 8 7 7 7 7
15 14 13 13 12 10 9 8 8 8 8 9 8 8 8 7 6 6 5 4 4 3 2 1 1 2 2 3 4 4 4 5 5 6 6 7 7 7 8 8 8 8 8 8 8 8 8 7 7
16 14 13 13 12 10 9 9 9 10 9 10 9 8 8 8 7 6 5 5 5 4 2 2 1 1 2 3 3 4 4 5 5 6 6 6 7 7 8 8 8 8 8 8 8 8 8 8 7
16 15 13 13 12 11 10 11 11 11 10 10 9 9 8 8 7 7 6 5 4 4 3 2 1 0 1 2 3 4 4 5 5 5 6 6 7 8 8 8 8 8 8 8 8 8 8 8 7
16 15 13 12 12 11 11 13 11 11 10 9 8 8 8 8 8 8 6 5 5 4 3 2 1 0 1 2 3 3 4 4 5 6 6 7 8 8 8 8 8 9 9 9 8 8 8 7 6
15 14 13 12 11 11 10 11 11 11 10 10 10 9 9 9 8 8 7 6 5 4 3 2 1 1 1 2 2 3 4 4 5 6 7 8 8 8 8 8 8 8 9 8 8 7 8 7 6
13 13 13 12 11 11 10 10 11 11 11 10 10 10 9 8 8 7 6 6 5 4 2 2 2 2 1 1 2 3 3 4 5 6 7 8 8 8 8 8 8 9 9 8 8 7 7 7 6
13 13 13 12 11 11 11 10 10 11 10 11 11 10 9 8 7 7 7 6 5 4 3 2 2 1 1 1 1 2 3 4 5 6 7 8 8 8 9 9 9 10 9 9 8 7 7 7 6
12 13 13 12 12 12 11 9 10 11 11 12 12 11 10 9 8 7 7 6 5 4 4 4 3 2 1 1 1 2 3 3 4 5 6 7 8 8 8 9 9 10 9 9 8 8 7 7 6
12 12 12 12 11 11 9 8 9 11 12 11 11 11 11 10 9 8 7 6 6 5 5 4 3 2 1 1 1 1 2 3 4 5 6 7 7 8 8 9 9 10 9 9 9 8 7 7 7
11 10 11 12 12 11 10 10 10 11 11 11 11 11 11 11 10 9 7 7 6 5 5 4 3 2 1 1 0 0 1 2 3 4 5 6 6 7 8 9 9 10 10 9 9 8 7 7 7
10 10 10 10 11 10 10 11 11 11 11 11 11 11 11 10 10 9 8 7 6 5 5 4 3 2 2 1 1 1 1 2 2 3 4 5 6 6 7 8 9 10 10 9 9 8 8 8 7
8 8 8 8 9 10 10 10 11 10 10 11 12 12 12 11 10 10 9 8 7 6 6 5 4 3 2 2 2 2 2 1 2 3 4 5 5 6 6 8 8 9 9 9 9 8 8 7 7
6 7 7 6 7 9 10 10 10 10 9 10 11 12 13 12 11 10 9 8 7 7 7 6 5 4 4 3 3 3 3 2 1 2 3 4 5 5 6 7 8 9 9 9 9 8 8 7 7
6 7 7 6 7 8 8 8 8 9 9 9 9 11 12 12 11 10 9 8 8 8 7 6 6 6 5 4 4 3 4 3 2 2 2 3 4 5 5 6 7 8 9 9 8 8 7 7 7
7 7 8 8 7 7 7 7 7 7 8 9 9 10 11 12 11 10 10 9 8 8 8 7 7 6 6 5 4 4 4 4 3 3 2 2 3 3 4 5 5 7 7 8 8 8 8 7 7
6 6 7 7 7 6 6 6 5 5 6 7 8 9 11 11 11 10 10 9 9 8 8 7 7 6 6 6 5 5 4 4 4 4 4 3 3 3 3 4 4 5 6 6 7 7 8 7 7
6 7 7 6 6 6 6 6 5 5 4 6 8 9 10 10 11 11 10 9 8 8 8 7 7 7 7 6 6 5 5 5 5 5 5 5 4 4 3 3 3 4 5 5 6 6 7 7 7
6 7 6 6 5 5 6 6 5 5 5 6 6 9 9 9 10 10 9 8 8 8 8 7 7 7 7 7 7 6 6 6 6 6 6 5 5 5 4 4 3 4 4 5 5 6 7 7 7
7 7 7 6 5 6 6 6 6 5 5 5 6 7 8 8 8 9 9 9 8 8 8 8 8 7 8 8 7 7 7 7 7 7 7 6 6 6 5 5 5 4 4 5 6 6 7 7 8
9 7 7 6 5 5 4 5 5 5 5 4 5 7 7 8 8 9 9 9 9 9 9 9 8 8 8 8 8 8 8 8 8 8 8 8 7 7 6 6 6 6 5 6 6 7 7 8 8
8 7 6 6 5 5 4 4 5 5 5 5 6 7 7 8 8 9 9 9 9 10 10 10 9 9 9 9 9 9 9 9 9 8 8 9 9 8 8 7 7 7 7 7 8 8 8 9 9
Wind_Direction
215 211 213 212 210 213 210 215 209 208 203 205 206 200 189 184 183 193 194 177 162 147 122 110 72 47 32 24 4 352 351 353 349 345 344 340 337 340 342 339 332 321 317 318 311 309 303 295 291
217 214 216 218 220 215 212 214 214 214 218 218 209 205 201 195 196 196 181 166 165 159 131 104 87 70 43 19 356 351 350 351 347 345 343 341 342 346 349 347 339 329 323 321 317 314 306 298 293
221 219 219 225 229 230 224 223 218 226 222 221 213 207 202 201 197 195 188 176 162 157 139 110 95 51 18 360 1 356 351 349 344 340 341 343 345 346 348 347 343 334 327 321 319 318 314 307 296
224 222 224 228 230 230 225 219 217 219 218 213 203 195 193 197 199 199 201 188 165 157 156 144 95 5 3 360 356 350 347 343 341 338 341 343 345 346 347 346 342 339 335 328 323 322 318 313 304
225 223 225 230 233 234 224 212 202 208 214 204 192 192 186 187 195 200 196 187 177 176 174 167 193 350 354 2 356 351 346 345 347 346 343 344 345 346 343 343 343 342 340 335 330 327 322 320 313
226 225 225 229 232 234 227 217 208 194 198 202 196 189 178 182 192 193 191 182 178 177 176 183 229 320 344 353 351 349 351 352 351 351 349 347 344 339 341 341 342 341 339 338 336 333 329 328 323
226 226 225 228 228 228 220 209 206 203 196 195 189 188 182 178 181 185 181 171 176 188 189 189 213 286 334 346 344 352 353 349 348 350 352 346 342 341 343 344 344 342 342 341 338 333 329 326 325
228 224 224 224 224 226 224 215 207 205 201 202 194 188 182 180 177 181 174 168 175 187 186 196 243 298 328 338 340 346 346 347 348 348 348 346 347 349 347 349 349 346 345 345 341 337 334 331 328
226 225 223 223 224 225 223 216 205 204 202 197 192 185 180 180 175 173 176 184 186 183 181 196 251 302 327 337 339 343 343 346 347 349 349 348 350 353 353 351 350 348 349 350 347 344 340 338 336
225 226 218 218 223 219 215 214 207 196 196 195 192 184 181 182 179 177 177 182 182 181 185 203 255 312 336 346 347 349 347 348 351 355 352 351 353 356 358 355 351 352 352 351 350 348 348 346 340
222 217 213 216 217 215 210 211 203 193 192 192 192 188 186 188 191 188 174 175 178 178 176 175 190 325 349 356 6 7 360 356 358 358 356 357 357 356 355 357 359 359 355 354 353 354 355 354 350
217 216 217 215 214 210 206 204 201 196 190 189 193 197 193 191 189 182 175 174 176 176 170 160 167 321 6 11 28 19 9 10 7 4 5 1 359 357 358 0 359 358 356 358 1 0 359 358 358
216 216 213 210 212 214 207 203 200 197 191 190 191 194 192 189 181 181 178 173 173 171 164 167 185 117 38 36 38 23 17 20 19 18 15 10 6 5 7 7 6 2 359 358 357 1 2 2 6
208 206 207 204 204 203 197 195 197 195 192 196 193 190 187 185 181 181 180 175 174 175 169 166 169 126 73 44 34 22 25 28 26 24 20 14 12 13 13 11 9 5 1 359 0 2 5 6 12
200 204 204 202 202 203 201 198 196 193 195 196 190 189 187 183 184 181 178 174 175 175 176 170 162 139 103 54 36 24 28 31 27 23 20 18 17 19 19 17 14 10 8 6 7 8 6 8 13
194 197 200 204 202 200 198 199 197 192 192 194 189 190 189 186 189 186 185 184 189 186 185 174 169 161 144 94 57 36 36 33 26 22 21 21 21 22 22 21 19 16 14 14 15 16 18 18 19
195 194 192 197 200 197 197 200 201 196 194 193 190 188 187 189 190 191 194 196 195 193 189 180 183 191 194 118 63 46 44 35 25 20 22 22 20 21 22 21 20 19 18 20 19 23 28 27 28
188 186 187 192 194 194 194 200 204 195 189 186 185 186 187 191 192 194 198 201 201 199 191 184 194 197 184 126 68 42 34 25 20 19 20 20 19 21 22 21 20 20 20 21 22 26 33 33 34
193 186 182 185 189 194 199 197 197 195 190 188 187 189 192 194 195 196 198 202 202 202 201 198 202 199 194 189 191 17 12 11 16 21 17 13 15 21 24 24 23 24 25 27 29 32 36 37 38
200 197 185 185 189 199 202 198 196 194 193 194 191 191 197 196 197 199 199 205 208 213 217 215 213 212 213 224 238 273 321 347 10 20 18 15 21 23 25 24 25 25 28 31 34 36 38 41 39
196 199 188 185 184 193 194 195 195 200 203 201 200 199 197 196 199 202 205 213 216 224 224 224 226 220 232 248 260 267 281 310 357 17 19 20 25 28 29 28 26 27 31 33 35 38 39 39 39
189 192 190 192 177 179 185 185 193 204 204 202 199 197 197 200 204 210 211 213 220 226 229 228 230 232 236 243 256 257 257 268 311 1 13 20 24 25 27 30 28 29 31 33 34 36 38 38 39
174 173 177 176 175 176 185 188 190 200 199 195 197 195 198 202 205 209 212 216 221 227 230 234 237 238 237 240 247 250 254 258 275 310 345 360 14 21 24 26 27 29 31 32 33 32 36 38 37
154 162 165 166 165 178 184 193 185 192 193 198 202 202 204 206 207 212 215 220 225 228 233 239 237 234 234 235 236 245 259 262 260 273 297 328 348 2 15 18 21 25 28 30 31 30 31 31 29
158 163 170 171 175 176 178 187 184 190 198 201 206 207 207 207 209 212 216 222 228 234 237 238 231 228 232 235 234 241 253 266 270 269 274 284 304 321 337 355 9 14 19 22 22 25 25 23 20
172 166 175 178 169 163 170 171 172 189 196 200 202 200 203 208 210 212 218 224 229 234 234 232 231 230 235 237 237 241 251 264 271 273 273 273 282 290 300 323 341 357 3 5 7 10 11 10 11
185 187 187 181 175 170 169 164 168 189 197 194 195 199 201 207 210 212 220 223 226 230 230 230 233 233 234 236 240 245 255 264 266 270 275 276 277 278 283 290 305 322 340 347 350 353 357 358 359
181 177 184 184 175 167 164 166 167 179 189 194 199 203 208 210 215 219 224 228 230 229 233 237 235 236 239 242 246 250 257 261 265 270 270 267 266 268 272 279 282 299 319 332 336 340 345 348 347
183 184 185 186 188 188 182 175 184 187 191 199 208 205 207 214 213 217 229 234 236 236 237 237 235 240 245 247 251 255 259 261 269 271 266 263 264 267 270 275 276 284 297 310 318 324 330 332 332
193 200 204 208 210 216 218 199 199 206 210 218 217 217 218 219 219 223 230 234 238 239 238 236 237 242 247 251 256 259 260 263 270 271 266 264 264 268 270 273 274 282 289 298 305 309 314 318 321
Height
5882 5883 5884 5886 5887 5886 5886 5887 5886 5887 5887 5888 5888 5890 5891 5892 5894 5897 5894 5893 5894 5894 5894 5894 5893 5893 5893 5893 5892 5892 5891 5890 5889 5887 5886 5884 5883 5882 5880 5879 5878 5877 5876 5875 5874 5872 5872 5871 5870
5880 5882 5884 5885 5885 5885 5886 5886 5886 5886 5887 5887 5888 5889 5890 5891 5892 5893 5893 5893 5893 5894 5894 5894 5893 5893 5893 5893 5892 5892 5891 5889 5888 5887 5885 5884 5883 5882 5880 5879 5878 5876 5875 5874 5873 5872 5871 5870 5869
5879 5881 5883 5883 5883 5884 5885 5885 5885 5886 5886 5887 5888 5889 5890 5891 5892 5892 5892 5893 5893 5893 5894 5894 5894 5894 5893 5893 5892 5891 5890 5889 5888 5886 5885 5884 5883 5881 5880 5879 5877 5876 5875 5873 5872 5871 5870 5869 5868
5877 5880 5882 5882 5882 5883 5884 5884 5884 5885 5885 5886 5887 5888 5889 5890 5891 5891 5892 5892 5893 5893 5894 5894 5894 5894 5893 5892 5892 5891 5890 5889 5887 5886 5885 5883 5882 5881 5880 5878 5877 5875 5874 5873 5872 5870 5869 5868 5867
5876 5878 5880 5880 5881 5882 5882 5883 5883 5883 5884 5885 5886 5887 5888 5889 5890 5890 5891 5892 5893 5893 5893 5894 5894 5893 5893 5892 5891 5890 5889 5888 5887 5886 5884 5883 5882 5880 5879 5878 5876 5875 5873 5872 5871 5870 5869 5868 5867
5874 5876 5878 5878 5880 5880 5881 5881 5882 5882 5882 5884 5885 5887 5887 5888 5889 5890 5891 5892 5892 5893 5893 5893 5893 5893 5892 5892 5891 5890 5889 5888 5887 5885 5884 5883 5881 5880 5878 5877 5875 5874 5873 5871 5870 5869 5868 5867 5866
5873 5874 5875 5877 5878 5878 5879 5880 5881 5881 5882 5884 5885 5886 5887 5888 5889 5889 5890 5891 5892 5892 5893 5893 5893 5893 5892 5891 5891 5889 5888 5887 5886 5885 5884 5882 5881 5879 5878 5876 5875 5873 5872 5871 5869 5868 5867 5866 5864
5869 5872 5873 5875 5876 5877 5878 5879 5880 5881 5882 5883 5885 5886 5887 5888 5889 5889 5890 5891 5892 5892 5892 5892 5892 5892 5892 5891 5890 5889 5888 5887 5886 5884 5883 5882 5880 5878 5877 5876 5874 5873 5871 5870 5868 5867 5866 5864 5863
5867 5871 5871 5873 5874 5875 5876 5877 5878 5879 5881 5882 5884 5885 5887 5887 5888 5889 5890 5891 5892 5892 5892 5892 5892 5892 5891 5890 5890 5889 5888 5887 5885 5884 5882 5881 5879 5878 5876 5875 5873 5872 5871 5869 5868 5866 5865 5863 5862
5865 5868 5869 5871 5872 5873 5875 5875 5877 5878 5880 5882 5883 5884 5886 5887 5888 5889 5890 5891 5891 5892 5892 5892 5892 5891 5891 5890 5889 5888 5887 5886 5885 5884 5882 5881 5879 5877 5876 5874 5873 5871 5870 5868 5867 5865 5864 5862 5861
5863 5865 5867 5869 5870 5872 5873 5875 5876 5878 5879 5881 5882 5884 5885 5886 5887 5888 5889 5891 5891 5891 5891 5891 5891 5891 5890 5890 5889 5888 5887 5886 5885 5883 5882 5880 5879 5877 5876 5874 5872 5871 5869 5868 5866 5864 5863 5861 5860
5861 5863 5865 5867 5869 5870 5871 5873 5875 5876 5879 5880 5881 5882 5884 5886 5887 5888 5889 5890 5891 5891 5891 5891 5891 5891 5890 5889 5888 5888 5887 5886 5884 5883 5882 5880 5879 5877 5875 5873 5872 5870 5869 5867 5865 5864 5862 5861 5859
5858 5860 5863 5865 5867 5868 5870 5871 5873 5875 5877 5879 5880 5881 5883 5885 5886 5887 5888 5890 5890 5890 5891 5891 5891 5890 5890 5889 5888 5888 5887 5886 5884 5883 5882 5880 5878 5876 5875 5873 5871 5870 5868 5866 5865 5863 5862 5860 5859
5856 5859 5861 5863 5865 5866 5868 5870 5872 5874 5875 5877 5879 5881 5882 5884 5885 5886 5888 5889 5890 5890 5890 5890 5890 5890 5890 5889 5888 5888 5887 5886 5884 5883 5881 5880 5878 5876 5875 5873 5871 5869 5867 5865 5864 5862 5861 5860 5858
5854 5858 5860 5861 5863 5865 5867 5869 5871 5872 5874 5876 5878 5880 5882 5883 5884 5886 5887 5888 5889 5889 5889 5890 5890 5890 5889 5889 5888 5888 5887 5885 5884 5883 5881 5880 5878 5876 5875 5873 5871 5869 5867 5865 5863 5861 5860 5859 5858
5853 5856 5858 5860 5862 5864 5868 5868 5869 5871 5873 5875 5877 5879 5881 5882 5884 5885 5886 5887 5888 5889 5889 5889 5889 5889 5889 5889 5888 5887 5886 5885 5884 5883 5882 5880 5878 5876 5875 5873 5871 5869 5867 5865 5863 5861 5860 5859 5858
5851 5854 5856 5859 5861 5863 5866 5867 5869 5870 5872 5874 5876 5878 5880 5882 5883 5884 5885 5886 5887 5888 5888 5889 5889 5889 5888 5888 5888 5887 5886 5885 5884 5883 5881 5880 5878 5877 5875 5873 5871 5869 5867 5864 5863 5861 5860 5859 5858
5850 5852 5855 5857 5859 5862 5864 5866 5867 5869 5871 5873 5875 5877 5879 5881 5882 5883 5884 5885 5886 5887 5887 5888 5888 5888 5888 5888 5887 5887 5886 5885 5884 5883 5881 5880 5879 5877 5875 5873 5871 5869 5867 5864 5863 5861 5860 5859 5859
5849 5851 5854 5856 5858 5860 5862 5864 5866 5868 5870 5872 5874 5876 5878 5880 5881 5882 5883 5885 5885 5886 5886 5887 5887 5887 5887 5887 5887 5886 5886 5885 5884 5883 5881 5880 5879 5877 5875 5873 5871 5869 5867 5865 5863 5862 5861 5860 5859
5849 5851 5853 5855 5857 5859 5861 5863 5865 5867 5869 5871 5873 5874 5877 5878 5880 5881 5882 5884 5885 5885 5885 5886 5886 5886 5886 5886 5886 5886 5885 5885 5884 5883 5881 5880 5879 5877 5875 5874 5872 5870 5867 5865 5864 5863 5862 5861 5860
5850 5851 5853 5854 5856 5858 5860 5863 5864 5866 5868 5869 5871 5873 5875 5876 5878 5880 5881 5882 5883 5884 5884 5884 5885 5885 5885 5885 5885 5885 5884 5884 5883 5882 5881 5880 5879 5877 5875 5874 5872 5870 5868 5866 5865 5864 5863 5862 5861
5850 5851 5853 5854 5856 5858 5860 5862 5863 5864 5866 5868 5869 5871 5873 5874 5876 5878 5879 5881 5881 5882 5883 5883 5883 5883 5883 5883 5883 5883 5883 5883 5882 5882 5881 5880 5878 5877 5876 5874 5872 5871 5869 5867 5866 5864 5863 5863 5862
5850 5851 5853 5854 5856 5858 5859 5861 5863 5863 5864 5866 5868 5869 5871 5873 5874 5876 5878 5879 5880 5880 5881 5881 5882 5882 5882 5882 5882 5882 5881 5881 5881 5880 5880 5879 5878 5877 5875 5874 5873 5871 5869 5868 5866 5865 5864 5863 5862
5850 5852 5853 5854 5856 5858 5859 5860 5861 5862 5863 5864 5866 5867 5869 5871 5873 5874 5876 5877 5878 5878 5879 5879 5880 5880 5880 5880 5880 5880 5880 5879 5879 5879 5878 5877 5877 5876 5875 5874 5872 5871 5870 5868 5867 5866 5865 5864 5863
5851 5853 5854 5854 5855 5857 5858 5859 5860 5861 5862 5863 5864 5866 5867 5869 5871 5872 5874 5875 5876 5876 5877 5877 5878 5878 5878 5879 5879 5878 5878 5878 5877 5877 5876 5876 5875 5874 5874 5873 5872 5871 5870 5868 5867 5866 5865 5864 5863
5850 5853 5855 5855 5855 5856 5857 5857 5859 5860 5860 5861 5862 5864 5866 5868 5869 5870 5872 5873 5874 5874 5875 5875 5875 5876 5876 5877 5877 5876 5876 5876 5876 5875 5874 5874 5873 5872 5872 5871 5871 5870 5869 5868 5867 5866 5865 5864 5863
5850 5852 5853 5855 5855 5856 5856 5857 5858 5858 5859 5860 5861 5863 5864 5866 5867 5868 5870 5871 5872 5872 5873 5873 5873 5874 5874 5874 5874 5874 5874 5873 5873 5873 5872 5871 5870 5870 5869 5869 5869 5869 5868 5867 5866 5866 5864 5863 5862
5851 5851 5853 5854 5854 5855 5856 5856 5858 5858 5858 5859 5860 5861 5862 5864 5865 5866 5868 5869 5869 5870 5871 5871 5871 5871 5872 5872 5872 5872 5871 5870 5870 5869 5868 5868 5867 5867 5867 5867 5867 5867 5866 5866 5865 5865 5864 5863 5861
5850 5851 5852 5853 5853 5854 5855 5858 5857 5857 5857 5858 5859 5860 5861 5862 5863 5864 5865 5866 5867 5868 5869 5869 5869 5869 5869 5869 5869 5869 5868 5867 5866 5865 5864 5864 5864 5864 5865 5865 5865 5865 5865 5864 5864 5863 5862 5861 5860
5848 5850 5851 5852 5853 5853 5854 5858 5855 5856 5857 5857 5858 5859 5860 5860 5861 5862 5863 5864 5865 5866 5866 5866 5867 5867 5867 5867 5867 5866 5865 5865 5864 5862 5861 5861 5862 5862 5862 5862 5863 5863 5862 5862 5862 5861 5861 5860 5859